Location: Peralejo
(40.5415°N, 4.1259°W)
Time: 13:24:29
(UTC+00:00)

ARIANE 6 FM1 Upper Stage - Visible Passes

Search period start: 11 February 2026 00:00
Search period end: 21 February 2026 00:00
Orbit: 522 x 609 km, 62.0° (Epoch: 10 February)

Date Brightness Start Highest point End Pass type
(mag) Time Alt. Az. Time Alt. Az. Time Alt. Az.
13 Feb 4.7 19:19:53 10° N 19:21:06 13° NNE 19:21:06 13° NNE visible
14 Feb 4.3 19:19:23 10° N 19:21:31 18° NNE 19:21:31 18° NNE visible
15 Feb 3.7 19:19:02 10° NNW 19:22:03 26° NE 19:22:03 26° NE visible
15 Feb 5.8 20:57:54 10° WNW 20:58:06 11° WNW 20:58:06 11° WNW visible
16 Feb 3.1 19:18:47 10° NNW 19:22:29 37° NE 19:22:43 37° ENE visible
16 Feb 5.7 20:58:18 10° WNW 20:58:46 12° WNW 20:58:46 12° WNW visible
17 Feb 2.6 19:18:36 10° NNW 19:22:29 55° NE 19:23:33 40° ESE visible
17 Feb 5.8 20:59:07 10° W 20:59:37 11° W 20:59:37 11° W visible
18 Feb 2.4 19:18:30 10° NW 19:22:28 85° NE 19:24:37 26° SE visible
19 Feb 2.9 19:18:29 10° NW 19:22:23 62° WSW 19:25:58 12° SSE visible
20 Feb 3.9 19:18:34 10° NW 19:22:16 39° WSW 19:26:00 10° S visible
